Location: Gleizolles
(44.4833°N, 6.7667°E)
Time: 21:20:09
(UTC+00:00)

Tiros 1 despin weight - Pass Details

Date: 01 July 2024
Orbit: 576 x 620 km, 48.2° (Epoch: 19 July)

Event Time Altitude Azimuth Distance (km) Brightness Sun altitude
Rises 12:48:13 0° 291° (WNW) 2,893 ? 64.1°
Reaches altitude 10° 12:50:31 10° 292° (WNW) 1,988 ? 63.8°
Maximum altitude 12:55:07 86° 19° (NNE) 626 ? 63.3°
Drops below altitude 10° 12:59:41 10° 111° (ESE) 1,980 ? 62.7°
Sets 13:01:59 0° 112° (ESE) 2,880 ? 62.4°
